Point Salines, Grenada

6:14 AM AST on February 21, 2018 (GMT -0400)
Point Salines International

Weather History for TGPY - September, 2012

Change the Weather History Date:

Wednesday, September 19, 2012

  Actual Average Record
Temperature  
Mean Temperature 82 °F -  
Max Temperature 90 °F 85 °F 91 °F (2005)
Min Temperature 75 °F 76 °F 73 °F (2014)
Cooling Degree Days 18    
Growing Degree Days 32 (Base 50)    
Moisture  
Dew Point 77 °F    
Average Humidity 79    
Maximum Humidity 94    
Minimum Humidity 64    
Precipitation  
Precipitation 0.00 in - - ()
Sea Level Pressure  
Sea Level Pressure 29.93 in    
Wind  
Wind Speed 6 mph ()    
Max Wind Speed 16 mph    
Max Gust Speed -    
Visibility 7.5 miles    
Events Rain , Thunderstorm    
Averages and records for this station are not official NWS values.
T = Trace of Precipitation, MM = Missing Value Source: Averaged Metar Reports

Daily Weather History Graph

Daily Weather History Graph

Search for Another Location

Airport or City:

Trip Planner

Search our weather history database for the weather conditions in past years. The results will help you decide how hot, cold, wet, or windy it might be!

Date:

Astronomy

Sep. 19, 2012 Rise Set
Actual Time 5:56 AM AST 6:04 PM AST
Civil Twilight 5:35 AM AST 6:26 PM AST
Nautical Twilight 5:10 AM AST 6:50 PM AST
Astronomical Twilight 4:46 AM AST 7:15 PM AST
Moon 9:09 AM AST (9/19) 9:04 PM AST (9/19)
Length of Visible Light 12h 50m
Length of Day
12h 08m
Waxing Crescent, 17% of the Moon is Illuminated
Sep 19
Waxing Crescent
Sep 22
First Quarter
Sep 29
Full
Oct 8
Last Quarter
Oct 15
New

Hourly Weather History & Observations

Time (AST) Temp. Heat Index Dew Point Humidity Pressure Visibility Wind Dir Wind Speed Gust Speed Precip Events Conditions
12:00 AM 84.2 °F 96.1 °F 78.8 °F 84% 29.95 in 6.2 mi SSE 10.4 mph - N/A Thunderstorm Mostly Cloudy
1:00 AM 80.6 °F 88.1 °F 78.8 °F 94% 29.95 in 5.0 mi Variable 1.2 mph - N/A Rain , Thunderstorm Light Thunderstorms and Rain
2:00 AM 78 °F - 76 °F 92% 29.93 in 6 mi East 6.9 mph - - Rain Heavy Rain Showers
2:00 AM 78.8 °F - 77.0 °F 94% 29.92 in 6.2 mi East 5.8 mph - N/A Rain Light Rain Showers
3:00 AM 78.8 °F - 75.2 °F 89% 29.92 in 6.2 mi Variable 2.3 mph - N/A   Scattered Clouds
4:00 AM 78.8 °F - 75.2 °F 89% 29.92 in 6.2 mi Calm Calm - N/A   Scattered Clouds
5:00 AM 78 °F - 76 °F 90% 29.93 in 9 mi Calm Calm - -   Scattered Clouds
5:00 AM 77.0 °F - 75.2 °F 94% 29.92 in 6.2 mi Calm Calm - N/A   Scattered Clouds
6:00 AM 78.8 °F - 75.2 °F 89% 29.92 in 6.2 mi East 3.5 mph - N/A   Mostly Cloudy
7:00 AM 82.4 °F 92.4 °F 78.8 °F 89% 29.95 in 6.2 mi ESE 10.4 mph - N/A   Scattered Clouds
8:00 AM 84 °F - 76 °F 70% 29.97 in 12 mi Calm Calm - -   Widespread Dust
8:00 AM 84.2 °F 92.3 °F 75.2 °F 74% 29.95 in 6.2 mi Calm Calm - N/A   Scattered Clouds
9:00 AM 87.8 °F 102.5 °F 78.8 °F 75% 29.98 in 6.2 mi SSE 6.9 mph - N/A   Partly Cloudy
10:00 AM 87.8 °F 102.5 °F 78.8 °F 75% 29.98 in 6.2 mi SE 9.2 mph - N/A   Scattered Clouds
11:00 AM 88 °F - 79 °F 67% 29.98 in 12 mi SSE 9.2 mph - -   Widespread Dust
11:00 AM 87.8 °F 102.5 °F 78.8 °F 75% 29.98 in 6.2 mi SSE 9.2 mph - N/A   Partly Cloudy
12:00 PM 87.8 °F 102.5 °F 78.8 °F 75% 29.95 in 6.2 mi SE 16.1 mph - N/A   Partly Cloudy
1:00 PM 89.6 °F 104.7 °F 78.8 °F 70% 29.92 in 6.2 mi SE 13.8 mph - N/A   Partly Cloudy
3:00 PM 87.8 °F 97.6 °F 75.2 °F 66% 29.89 in 6.2 mi SE 15.0 mph - N/A   Partly Cloudy
4:00 PM 87.8 °F 99.7 °F 77.0 °F 70% 29.89 in 6.2 mi ESE 16.1 mph - N/A   Partly Cloudy
5:00 PM 87 °F - 77 °F 64% 29.89 in 15 mi SE 11.5 mph - -   Widespread Dust
5:00 PM 87.8 °F 99.7 °F 77.0 °F 70% 29.89 in 6.2 mi SE 11.5 mph - N/A   Partly Cloudy
6:00 PM 86.0 °F 96.9 °F 77.0 °F 74% 29.89 in 6.2 mi ESE 11.5 mph - N/A   Partly Cloudy
7:00 PM 84.2 °F 94.1 °F 77.0 °F 79% 29.89 in 6.2 mi East 9.2 mph - N/A   Partly Cloudy
8:00 PM 84 °F - 76 °F 70% 29.93 in 15 mi ESE 5.8 mph - -   Widespread Dust
8:00 PM 84.2 °F 92.3 °F 75.2 °F 74% 29.92 in 6.2 mi ESE 5.8 mph - N/A   Partly Cloudy
9:00 PM 84.2 °F 94.1 °F 77.0 °F 79% 29.92 in 6.2 mi East 9.2 mph - N/A   Partly Cloudy
10:00 PM 82.4 °F 90.9 °F 77.0 °F 84% 29.95 in 6.2 mi East 6.9 mph - N/A   Partly Cloudy
11:00 PM 83 °F - 76 °F 74% 29.96 in 14 mi East 10.4 mph - -   Widespread Dust
11:00 PM 84.2 °F 94.1 °F 77.0 °F 79% 29.95 in 6.2 mi East 10.4 mph - N/A   Partly Cloudy